Location: Göttingen
(51.5413°N, 9.9158°E)
Time: 05:20:25
(UTC+02:00)

Envisat - Pass Details

Date: 24 January 2022
Orbit: 764 x 765 km, 98.2° (Epoch: 28 May)

Event Time Altitude Azimuth Distance (km) Brightness Sun altitude
Rises 06:31:26 0° 8° (N) 3,244 6.2 -15.1°
Reaches altitude 10° 06:33:57 10° 358° (N) 2,313 5.3 -14.7°
Maximum altitude 06:38:23 31° 298° (WNW) 1,321 3.7 -14.0°
Drops below altitude 10° 06:42:48 10° 237° (WSW) 2,300 5.1 -13.3°
Sets 06:45:18 0° 228° (SW) 3,222 5.9 -13.0°
